Starlink 32423

operational
NORAD ID: 61218 Int'l Des: 2024-171 Owner: SPXS Country: US Constellation: starlink
LEOCIRCULAR

关于 Starlink 32423

正在加载描述...

实时位置

正在加载3D地球...

即将过境

高度历史

Altitude vs Time

uPlot chart will show altitude changes over time

两行轨道根数

1 61218U 24171U 26035.21767329 .00000711 00000-0 36111-4 0 9991
2 61218 53.1605 117.9283 0000810 66.9114 293.1972 15.30192211 78156
Epoch: Feb 4, 2026 • Age: 9 hours

当前状态

高度 480.6 km
速度 7.63 km/s
星下点 -18.05°S, 33.6°W
发射日期 Sep 20, 2024
运行时间 1.3 years
类型 internet

技术详情

分类 Payload
质量 730.00 kg
干质量 700.00 kg
总质量 730.00 kg
长度 0.30 m
直径 4.10 m
跨度 29.00 m
形状 Box + pan
制造商 SPXS
平台类型 Starlink V2M
阶段状态 In Orbit
所有者/国家 SPXS/US

大型星座

Loading constellations...